Watertown, WI

7:01 PM CST on December 10, 2016 (GMT -0600)
Watertown Municipal

Weather History for KRYV - October, 2013

Change the Weather History Date:

Thursday, October 10, 2013

  Actual Average Record
Temperature  
Mean Temperature 56 °F -  
Max Temperature 73 °F 59 °F 85 °F (1938)
Min Temperature 40 °F 40 °F 19 °F (1964)
Degree Days  
Heating Degree Days 9    
Growing Degree Days 6 (Base 50)    
Moisture  
Dew Point 47 °F    
Average Humidity 74    
Maximum Humidity 100    
Minimum Humidity 39    
Precipitation  
Precipitation 0.00 in - - ()
Sea Level Pressure  
Sea Level Pressure 30.11 in    
Wind  
Wind Speed 2 mph (SE)    
Max Wind Speed 9 mph    
Max Gust Speed -    
Visibility 8 miles    
Events Fog    
Averages and records for this station are not official NWS values.
T = Trace of Precipitation, MM = Missing Value Source: NWS Daily Summary

Daily Weather History Graph

Daily Weather History Graph

Search for Another Location

Airport or City:

Trip Planner

Search our weather history database for the weather conditions in past years. The results will help you decide how hot, cold, wet, or windy it might be!

Date:

Astronomy

Oct. 10, 2013 Rise Set
Actual Time 7:02 AM CDT 6:19 PM CDT
Civil Twilight 6:34 AM CDT 6:48 PM CDT
Nautical Twilight 6:01 AM CDT 7:21 PM CDT
Astronomical Twilight 5:28 AM CDT 7:54 PM CDT
Moon 1:00 PM CDT (10/10) 10:52 PM CDT (10/10)
Length of Visible Light 12h 14m
Length of Day
11h 16m
Waxing Crescent, 36% of the Moon is Illuminated
Oct 10
Waxing Crescent
Oct 11
First Quarter
Oct 18
Full
Oct 26
Last Quarter
Nov 3
New

Hourly Weather History & Observations

Time (CDT) Temp. Dew Point Humidity Pressure Visibility Wind Dir Wind Speed Gust Speed Precip Events Conditions
12:15 AM 45.5 °F 42.4 °F 89% 30.16 in 10.0 mi Calm Calm - N/A   Clear
12:35 AM 44.2 °F 42.8 °F 95% 30.16 in 10.0 mi Calm Calm - N/A   Clear
12:55 AM 42.3 °F 40.5 °F 93% 30.15 in 10.0 mi Calm Calm - N/A   Clear
1:15 AM 44.8 °F 43.0 °F 93% 30.16 in 10.0 mi Calm Calm - N/A   Clear
1:35 AM 43.9 °F 42.3 °F 94% 30.16 in 10.0 mi Calm Calm - N/A   Clear
1:55 AM 44.6 °F 43.2 °F 95% 30.16 in 10.0 mi Calm Calm - N/A   Clear
2:15 AM 44.6 °F 43.5 °F 96% 30.15 in 10.0 mi Calm Calm - N/A   Clear
2:35 AM 43.5 °F 42.1 °F 95% 30.15 in 10.0 mi Calm Calm - N/A   Clear
2:55 AM 43.9 °F 42.8 °F 96% 30.14 in 10.0 mi Calm Calm - N/A   Clear
3:15 AM 43.9 °F 42.8 °F 96% 30.14 in 10.0 mi Calm Calm - N/A   Clear
3:35 AM 44.1 °F 43.0 °F 96% 30.14 in 10.0 mi Calm Calm - N/A   Clear
3:55 AM 44.1 °F 43.5 °F 98% 30.14 in 5.0 mi Calm Calm - N/A   Clear
4:15 AM 43.5 °F 42.8 °F 97% 30.15 in 7.0 mi Calm Calm - N/A   Clear
4:35 AM 41.5 °F 40.8 °F 97% 30.15 in 2.0 mi Calm Calm - N/A   Clear
4:55 AM 44.1 °F 43.7 °F 99% 30.15 in 4.0 mi Calm Calm - N/A   Clear
5:15 AM 41.9 °F 41.2 °F 97% 30.15 in 3.0 mi Calm Calm - N/A   Clear
5:35 AM 42.8 °F 41.9 °F 97% 30.14 in 5.0 mi Calm Calm - N/A   Clear
5:55 AM 43.9 °F 43.2 °F 97% 30.15 in 2.5 mi Calm Calm - N/A   Clear
6:15 AM 40.6 °F 39.9 °F 97% 30.15 in 0.8 mi Calm Calm - N/A   Mostly Cloudy
6:35 AM 40.5 °F 40.1 °F 99% 30.15 in 5.0 mi Calm Calm - N/A   Mostly Cloudy
6:55 AM 41.0 °F 41.0 °F 100% 30.16 in 0.2 mi Calm Calm - N/A Fog Fog
7:15 AM 40.3 °F 40.3 °F 100% 30.16 in 0.5 mi Calm Calm - N/A Fog Fog
7:35 AM 40.3 °F 40.3 °F 100% 30.16 in 0.2 mi Calm Calm - N/A Fog Fog
7:55 AM 43.7 °F 43.7 °F 100% 30.16 in 0.2 mi Calm Calm - N/A Fog Fog
8:15 AM 48.2 °F 48.2 °F 100% 30.16 in 1.5 mi Calm Calm - N/A   Mostly Cloudy
8:35 AM 50.7 °F 50.4 °F 99% 30.16 in 4.0 mi Calm Calm - N/A   Clear
8:55 AM 53.4 °F 52.2 °F 95% 30.16 in 7.0 mi Calm Calm - N/A   Clear
9:15 AM 55.6 °F 52.2 °F 88% 30.16 in 10.0 mi SE 3.5 mph - N/A   Clear
9:35 AM 57.7 °F 52.2 °F 82% 30.17 in 10.0 mi Calm Calm - N/A   Clear
9:55 AM 60.3 °F 52.5 °F 76% 30.17 in 10.0 mi SSE 3.5 mph - N/A   Clear
10:15 AM 63.1 °F 52.0 °F 67% 30.17 in 10.0 mi Calm Calm - N/A   Clear
10:35 AM 64.2 °F 52.0 °F 64% 30.16 in 10.0 mi Calm Calm - N/A   Clear
10:55 AM 66.4 °F 52.5 °F 61% 30.16 in 10.0 mi ESE 3.5 mph - N/A   Clear
11:15 AM 67.5 °F 50.7 °F 55% 30.15 in 10.0 mi South 3.5 mph - N/A   Clear
11:35 AM 68.9 °F 48.9 °F 49% 30.15 in 10.0 mi SSE 6.9 mph - N/A   Clear
11:55 AM 69.3 °F 47.8 °F 46% 30.15 in 10.0 mi SE 5.8 mph - N/A   Clear
12:15 PM 70.5 °F 47.7 °F 44% 30.14 in 10.0 mi SE 9.2 mph - N/A   Clear
12:35 PM 70.9 °F 46.8 °F 42% 30.13 in 10.0 mi SSE 8.1 mph - N/A   Clear
12:55 PM 71.1 °F 47.1 °F 42% 30.12 in 10.0 mi SSE 8.1 mph - N/A   Clear
1:15 PM 71.6 °F 46.8 °F 41% 30.11 in 10.0 mi SE 5.8 mph - N/A   Clear
1:35 PM 71.8 °F 46.0 °F 40% 30.10 in 10.0 mi SSE 8.1 mph - N/A   Clear
1:55 PM 72.1 °F 46.0 °F 39% 30.10 in 10.0 mi ESE 6.9 mph - N/A   Clear
2:15 PM 72.1 °F 46.9 °F 41% 30.09 in 10.0 mi SE 5.8 mph - N/A   Clear
2:35 PM 72.1 °F 48.6 °F 43% 30.09 in 10.0 mi SSE 4.6 mph - N/A   Clear
2:55 PM 71.1 °F 48.4 °F 44% 30.09 in 10.0 mi SSE 3.5 mph - N/A   Clear
3:15 PM 72.1 °F 48.6 °F 43% 30.08 in 10.0 mi SE 8.1 mph - N/A   Clear
3:35 PM 72.3 °F 46.9 °F 40% 30.07 in 10.0 mi South 6.9 mph - N/A   Clear
3:55 PM 72.7 °F 48.0 °F 42% 30.07 in 10.0 mi South 5.8 mph - N/A   Clear
4:15 PM 72.1 °F 47.7 °F 42% 30.06 in 10.0 mi SSE 9.2 mph - N/A   Clear
4:35 PM 71.8 °F 48.0 °F 43% 30.06 in 10.0 mi SE 5.8 mph - N/A   Clear
4:55 PM 71.6 °F 48.6 °F 44% 30.06 in 10.0 mi South 8.1 mph - N/A   Clear
5:15 PM 70.7 °F 48.2 °F 45% 30.05 in 10.0 mi SSE 5.8 mph - N/A   Clear
5:35 PM 69.3 °F 49.5 °F 49% 30.05 in 10.0 mi ESE 3.5 mph - N/A   Clear
5:55 PM 68.0 °F 50.0 °F 52% 30.05 in 10.0 mi ESE 4.6 mph - N/A   Clear
6:15 PM 64.6 °F 50.4 °F 60% 30.06 in 10.0 mi ESE 4.6 mph - N/A   Clear
6:35 PM 62.4 °F 50.4 °F 65% 30.06 in 10.0 mi East 4.6 mph - N/A   Clear
6:55 PM 61.3 °F 49.6 °F 65% 30.06 in 10.0 mi ESE 5.8 mph - N/A   Clear
7:15 PM 59.2 °F 50.0 °F 72% 30.06 in 10.0 mi East 5.8 mph - N/A   Clear
7:35 PM 59.2 °F 49.6 °F 71% 30.07 in 10.0 mi ESE 6.9 mph - N/A   Clear
7:55 PM 57.9 °F 49.3 °F 73% 30.06 in 10.0 mi ESE 5.8 mph - N/A   Clear
8:15 PM 57.7 °F 49.3 °F 73% 30.05 in 10.0 mi ESE 9.2 mph - N/A   Clear
8:35 PM 56.8 °F 49.1 °F 75% 30.06 in 10.0 mi ESE 6.9 mph - N/A   Clear
8:55 PM 56.5 °F 49.1 °F 76% 30.06 in 10.0 mi ESE 6.9 mph - N/A   Clear
9:15 PM 55.6 °F 49.1 °F 79% 30.06 in 10.0 mi ESE 5.8 mph - N/A   Clear
9:35 PM 55.0 °F 49.1 °F 80% 30.06 in 10.0 mi East 6.9 mph - N/A   Clear
9:55 PM 54.5 °F 48.7 °F 81% 30.06 in 10.0 mi ESE 6.9 mph - N/A   Clear
10:15 PM 53.6 °F 48.7 °F 84% 30.06 in 10.0 mi ESE 5.8 mph - N/A   Clear
10:35 PM 53.8 °F 49.1 °F 84% 30.06 in 10.0 mi ESE 5.8 mph - N/A   Clear
10:55 PM 54.9 °F 49.3 °F 81% 30.06 in 7.0 mi ESE 5.8 mph - N/A   Clear
11:15 PM 54.0 °F 49.1 °F 84% 30.05 in 10.0 mi ESE 4.6 mph - N/A   Clear
11:35 PM 53.6 °F 49.1 °F 85% 30.05 in 10.0 mi Calm Calm - N/A   Clear
11:55 PM 52.2 °F 48.4 °F 87% 30.05 in 10.0 mi Calm Calm - N/A   Clear